This demonstration page uses our WeatherBlox Daily Observations layout. Learn more.

Left ArrowRight Arrow

39.08367, -84.50855

Hourly Observations for September 22, 2017

Temp ( °F °C ) Dew Point ( °F °C ) Humidity (%) Winds ( mph kmh ) Pressure ( in mb ) Visibility ( mi km ) Precip ( " mm )
12:53 am 00:53 Clear with Mist and Fog 70 21.1 70 21.1 100 100 N N/A 30.06 1018 3 4 N/A
1:15 am 01:15 Clear with Mist and Fog 70 21.1 70 21.1 100 100 N N/A 30.06 1018 4 6 N/A
1:53 am 01:53 Partly Cloudy with Mist and Fog 69 20.6 69 20.6 100 100 N N/A 30.07 1018 4 6 N/A
2:01 am 02:01 Mostly Clear with Mist and Fog 69 20.6 69 20.6 100 100 N N/A 30.06 1018 2 3 N/A
2:17 am 02:17 Mostly Clear with Mist and Fog 69 20.6 69 20.6 100 100 N N/A 30.06 1018 1 2 N/A
2:22 am 02:22 Mostly Clear with Mist and Fog 68 20 68 20 100 100 N N/A 30.06 1018 3 5 N/A
2:53 am 02:53 Clear with Mist and Fog 69 20.6 69 20.6 100 100 N N/A 30.07 1018 3 4 N/A
3:16 am 03:16 Clear with Mist and Fog 69 20.6 69 20.6 100 100 N N/A 30.06 1018 2 2 N/A
3:32 am 03:32 Mostly Clear with Fog 67 19.4 67 19.4 100 100 SE 3 6 30.06 1018 1 1 N/A
3:38 am 03:38 Mostly Clear with Mist and Fog 68 20 68 20 100 100 N N/A 30.06 1018 2 3 N/A
3:46 am 03:46 Mostly Clear with Mist and Fog 68 20 68 20 100 100 N N/A 30.06 1018 3 5 N/A
3:53 am 03:53 Mostly Clear with Mist and Fog 68 20 68 20 100 100 N N/A 30.07 1018 3 4 N/A
4:15 am 04:15 Clear with Mist and Fog 68 20 68 20 100 100 N N/A 30.06 1018 4 6 N/A
4:18 am 04:18 Clear with Mist and Fog 67 19.4 67 19.4 100 100 N N/A 30.06 1018 2 3 N/A
4:23 am 04:23 Mostly Cloudy with Fog 67 19.4 67 19.4 100 100 N N/A 30.06 1018 1 1 N/A
4:29 am 04:29 Partly Cloudy with Fog 67 19.4 67 19.4 100 100 N N/A 30.06 1018 0 0 N/A
4:37 am 04:37 Mostly Clear with Mist and Fog 67 19.4 67 19.4 100 100 N N/A 30.06 1018 1 2 N/A
4:53 am 04:53 Mostly Cloudy with Fog 68 20 68 20 100 100 N N/A 30.07 1018 1 1 N/A
5:08 am 05:08 Mostly Clear with Mist and Fog 67 19.4 67 19.4 100 100 N N/A 30.06 1018 1 2 N/A
5:14 am 05:14 Mostly Cloudy with Mist and Fog 67 19.4 67 19.4 100 100 N N/A 30.06 1018 1 1 N/A
5:26 am 05:26 Mostly Cloudy with Fog 67 19.4 67 19.4 100 100 N N/A 30.06 1018 0 0 N/A
5:31 am 05:31 Mostly Cloudy with Fog 67 19.4 67 19.4 100 100 N N/A 30.06 1018 1 1 N/A
5:40 am 05:40 Mostly Cloudy with Fog 66 18.9 66 18.9 100 100 N N/A 30.06 1018 0 0 N/A
5:53 am 05:53 Mostly Cloudy with Fog 66 18.9 66 18.9 100 100 N N/A 30.08 1019 0 0 N/A
6:01 am 06:01 Mostly Cloudy with Mist and Fog 66 18.9 66 18.9 100 100 N N/A 30.06 1018 1 2 N/A
6:08 am 06:08 Mostly Clear with Mist and Fog 66 18.9 66 18.9 100 100 N N/A 30.06 1018 1 2 N/A
6:11 am 06:11 Mostly Cloudy with Mist and Fog 66 18.9 66 18.9 100 100 N N/A 30.06 1018 1 1 N/A
6:17 am 06:17 Partly Cloudy with Mist and Fog 66 18.9 66 18.9 100 100 N N/A 30.06 1018 1 2 N/A
6:20 am 06:20 Mostly Cloudy with Mist and Fog 67 19.4 67 19.4 100 100 N N/A 30.06 1018 2 3 N/A
6:25 am 06:25 Mostly Cloudy with Mist and Fog 67 19.4 67 19.4 100 100 N N/A 30.06 1018 1 1 N/A
6:51 am 06:51 Mostly Cloudy with Fog 66 19 66 19 100 100 N N/A 30.09 1019 0 0 N/A
6:53 am 06:53 Mostly Cloudy with Fog 66 18.9 66 18.9 100 100 N N/A 30.10 1019 0 0 N/A
7:11 am 07:11 Mostly Cloudy with Fog 66 18.9 66 18.9 100 100 N N/A 30.09 1019 0 0 N/A
7:25 am 07:25 Mostly Cloudy with Fog 67 19.4 67 19.4 100 100 N N/A 30.09 1019 1 1 N/A
7:53 am 07:53 Cloudy with Mist and Fog 66 18.9 66 18.9 100 100 N N/A 30.11 1020 2 3 N/A
8:00 am 08:00 Partly Cloudy with Mist and Fog 65 18.3 65 18.3 100 100 N N/A 30.09 1019 2 3 N/A
8:53 am 08:53 Partly Cloudy with Mist and Fog 69 20.6 69 20.6 100 100 N N/A 30.12 1020 3 5 N/A
9:53 am 09:53 Sunny 74 23.3 71 21.7 91 91 N N/A 30.12 1020 7 11 N/A
10:53 am 10:53 Mostly Sunny 80 26.7 72 22.2 76 76 N N/A 30.11 1020 7 11 N/A
11:53 am 11:53 Sunny 84 28.9 68 20 59 59 N N/A 30.10 1019 10 16 N/A
12:53 pm 12:53 Sunny 87 30.6 68 20 53 53 N N/A 30.09 1019 10 16 N/A
1:53 pm 13:53 Partly Cloudy 89 31.7 69 20.6 52 52 ENE 6 9 30.07 1018 10 16 N/A
2:53 pm 14:53 Partly Cloudy 90 32.2 67 19.4 47 47 N N/A 30.05 1018 10 16 N/A
3:53 pm 15:53 Sunny 89 31.7 66 18.9 47 47 VRB 5 7 30.04 1017 10 16 N/A
4:53 pm 16:53 Sunny 89 31.7 68 20 50 50 N N/A 30.02 1017 10 16 N/A
5:53 pm 17:53 Sunny 88 31.1 66 18.9 48 48 N N/A 30.02 1017 10 16 N/A
6:53 pm 18:53 Sunny 82 27.8 74 23.3 77 77 N N/A 30.02 1017 10 16 N/A
7:53 pm 19:53 Clear 75 23.9 71 21.7 88 88 N N/A 30.03 1017 10 16 N/A
8:53 pm 20:53 Clear 72 22.2 70 21.1 94 94 N N/A 30.05 1018 10 16 N/A
9:53 pm 21:53 Clear 71 21.7 68 20 90 90 N N/A 30.05 1018 10 16 N/A
10:53 pm 22:53 Clear with Mist and Fog 68 20 68 20 100 100 N N/A 30.06 1018 6 10 N/A
11:53 pm 23:53 Clear 68 20 67 19.4 96 96 N N/A 30.06 1018 7 11 N/A

Powered by AerisWeather